地球静止运行环境卫星 4星 (GOES 4)

导读 | 星芒AI

GOES 4 是美国国家气象卫星计划(GOES)系列中的一颗地球静止气象卫星,于1979年发射。它由美国国家海洋和大气管理局(NOAA)运营,主要用于气象观测,提供云层覆盖、天气系统发展和地球表面状况的实时图像。GOES 4 在东经135度的轨道位置运行,为北美地区提供气象数据支持,提升了天气预报的准确性。该卫星搭载了先进的云图传感器,是早期静止气象卫星的重要组成部分,为后续 GOES 系列卫星的发展奠定了基础。

基本信息
目录编号:
11964
目录名称:
GOES 4
国际标识:
1980-074A
轨道中心:
EARTH
卫星名称:
地球静止运行环境卫星 4星
卫星全名:
地球静止运行环境卫星 4星 (GOES 4)
卫星状态:
在轨 (已飞行16486 天)
发射日期:
1980-09-09 UTC
国别 :
美国 (US)
星等 :
--
轨道信息
数据来源 国际轨道数据 AOE轨道数据
星历时间 2025-10-28T21:35:54+0800
18小时前
查看轨道信息
2025-10-26T04:00:00+0800
3天前
查看轨道信息
半长轴 42460.134km 42459.991km
偏心率 0.002982 0.0029884
轨道倾角 8.492° 8.499°
近地点辐角 103.556° 103.723°
升交点赤经 304.665° 304.683°
平近点角 256.007° 359.442°
近地点 35955.382km 35954.968km
远地点 36208.616km 36208.744km
周期 1451.215分钟 1451.208分钟
每日圈数 0.992272 0.992277
详细信息
卫星平台:
HS-374
平衡模式:
自旋稳定
覆盖范围:
全球
制造商(研发单位):
飞歌公司
制造商所在国:
美国
使用方式:
暂无
卫星简介
地球静止环境业务卫星是美国国家海洋和大气管理局(NOAA)与美国国家航空航天局(NASA)共同发展的民用静止轨道气象系列卫星。[1]美国第一代地球静止轨道气象卫星系列。英文缩写为GOES。该卫星已退役。
2D轨道图
3D轨道图
轨道高度分析图
轨道倾角分析图
轨道综合分析图
查看轨道综合分析图